TimeCDT,TemperatureF,Dew PointF,Humidity,Sea Level PressureIn,VisibilityMPH,Wind Direction,Wind SpeedMPH,Gust SpeedMPH,PrecipitationIn,Events,Conditions,WindDirDegrees,DateUTC
12:53 AM,44.1,19.0,37,30.04,10.0,South,28.8,39.1,N/A,,Clear,180,2013-03-27 05:53:00
1:53 AM,44.1,19.9,38,30.04,10.0,South,25.3,33.4,N/A,,Clear,180,2013-03-27 06:53:00
2:53 AM,44.1,19.9,38,30.02,10.0,South,24.2,32.2,N/A,,Clear,180,2013-03-27 07:53:00
3:53 AM,43.0,19.9,40,30.00,10.0,South,24.2,32.2,N/A,,Clear,170,2013-03-27 08:53:00
4:53 AM,42.1,21.0,43,29.98,10.0,South,23.0,31.1,N/A,,Clear,170,2013-03-27 09:53:00
5:53 AM,41.0,21.0,45,29.97,10.0,South,23.0,35.7,N/A,,Clear,180,2013-03-27 10:53:00
6:53 AM,39.9,21.9,49,30.00,10.0,South,17.3,24.2,N/A,,Clear,190,2013-03-27 11:53:00
7:53 AM,39.9,21.9,49,30.02,10.0,South,16.1,-,N/A,,Clear,190,2013-03-27 12:53:00
8:53 AM,41.0,23.0,49,30.02,10.0,South,19.6,26.5,N/A,,Clear,180,2013-03-27 13:53:00
9:53 AM,46.9,23.0,39,30.01,10.0,South,29.9,34.5,N/A,,Clear,190,2013-03-27 14:53:00
10:53 AM,53.1,23.0,31,30.00,10.0,SSW,24.2,33.4,N/A,,Clear,200,2013-03-27 15:53:00
11:53 AM,57.9,24.1,27,30.01,10.0,SSW,19.6,26.5,N/A,,Clear,200,2013-03-27 16:53:00
12:53 PM,62.1,24.1,23,30.01,10.0,WSW,12.7,-,N/A,,Clear,240,2013-03-27 17:53:00
1:53 PM,66.0,25.0,21,29.98,10.0,SW,9.2,16.1,N/A,,Clear,230,2013-03-27 18:53:00
2:53 PM,70.0,26.1,19,29.96,10.0,SW,11.5,-,N/A,,Clear,230,2013-03-27 19:53:00
3:53 PM,70.0,28.0,21,29.95,10.0,West,11.5,-,N/A,,Clear,270,2013-03-27 20:53:00
4:53 PM,70.0,27.0,20,29.96,10.0,NNW,6.9,-,N/A,,Clear,330,2013-03-27 21:53:00
5:53 PM,69.1,27.0,21,29.97,10.0,NW,6.9,-,N/A,,Clear,320,2013-03-27 22:53:00
6:53 PM,66.9,28.9,24,29.98,10.0,North,8.1,-,N/A,,Clear,350,2013-03-27 23:53:00
7:53 PM,57.9,30.9,36,30.02,10.0,North,5.8,-,N/A,,Clear,360,2013-03-28 00:53:00
8:53 PM,52.0,30.9,45,30.04,10.0,North,4.6,-,N/A,,Clear,360,2013-03-28 01:53:00
9:53 PM,48.9,30.9,50,30.05,10.0,ENE,3.5,-,N/A,,Clear,60,2013-03-28 02:53:00
10:53 PM,48.9,30.9,50,30.05,10.0,NE,4.6,-,N/A,,Clear,40,2013-03-28 03:53:00
11:53 PM,45.0,32.0,60,30.06,10.0,ENE,6.9,-,N/A,,Clear,60,2013-03-28 04:53:00